Wildwood, NJ

8:02 AM EDT on May 28, 2017 (GMT -0400)
Cape May County

Weather History for KWWD - January, 2013

Change the Weather History Date:

Tuesday, January 22, 2013

  Actual Average Record
Temperature  
Mean Temperature 24 °F -  
Max Temperature 30 °F 37 °F 51 °F (1997)
Min Temperature 17 °F 25 °F 6 °F (2014)
Degree Days  
Heating Degree Days 42    
Moisture  
Dew Point 3 °F    
Average Humidity 44    
Maximum Humidity 64    
Minimum Humidity 36    
Precipitation  
Precipitation 0.00 in - - ()
Sea Level Pressure  
Sea Level Pressure 30.11 in    
Wind  
Wind Speed 13 mph (WNW)    
Max Wind Speed 21 mph    
Max Gust Speed 33 mph    
Visibility 10 miles    
Events      
Averages and records for this station are not official NWS values.
T = Trace of Precipitation, MM = Missing Value Source: NWS Daily Summary

Daily Weather History Graph

Daily Weather History Graph

Search for Another Location

Airport or City:

Trip Planner

Search our weather history database for the weather conditions in past years. The results will help you decide how hot, cold, wet, or windy it might be!

Date:

Astronomy

Jan. 22, 2013 Rise Set
Actual Time 7:13 AM EST 5:09 PM EST
Civil Twilight 6:44 AM EST 5:38 PM EST
Nautical Twilight 6:12 AM EST 6:10 PM EST
Astronomical Twilight 5:40 AM EST 6:42 PM EST
Moon 1:31 PM EST (1/22) 3:32 AM EST (1/22)
Length of Visible Light 10h 53m
Length of Day
9h 56m
Waxing Gibbous, 82% of the Moon is Illuminated
Jan 22
Waxing Gibbous
Jan 26
Full
Feb 3
Last Quarter
Feb 10
New
Feb 17
First Quarter

Hourly Weather History & Observations

Time (EST) Temp. Windchill Dew Point Humidity Pressure Visibility Wind Dir Wind Speed Gust Speed Precip Events Conditions
12:15 AM 30.2 °F 21.9 °F 19.4 °F 64% 29.89 in 10.0 mi NNW 9.2 mph 19.6 mph N/A   Partly Cloudy
12:35 AM 30.2 °F 21.9 °F 17.6 °F 60% 29.89 in 10.0 mi NNW 9.2 mph 19.6 mph N/A   Partly Cloudy
12:55 AM 28.4 °F 19.7 °F 17.6 °F 64% 29.90 in 10.0 mi NNW 9.2 mph 17.3 mph N/A   Partly Cloudy
1:15 AM 28.4 °F 18.0 °F 15.8 °F 59% 29.90 in 10.0 mi NNW 12.7 mph 20.7 mph N/A   Clear
1:35 AM 28.4 °F 18.0 °F 15.8 °F 59% 29.91 in 10.0 mi NW 12.7 mph 17.3 mph N/A   Clear
1:55 AM 28.4 °F 20.4 °F 14.0 °F 55% 29.92 in 10.0 mi NNW 8.1 mph 18.4 mph N/A   Clear
2:15 AM 26.6 °F 15.7 °F 12.2 °F 55% 29.93 in 10.0 mi NW 12.7 mph 17.3 mph N/A   Clear
2:35 AM 26.6 °F 16.8 °F 12.2 °F 55% 29.94 in 10.0 mi NW 10.4 mph 16.1 mph N/A   Partly Cloudy
2:55 AM 28.4 °F 19.7 °F 12.2 °F 51% 29.95 in 10.0 mi NW 9.2 mph 18.4 mph N/A   Mostly Cloudy
3:15 AM 28.4 °F 17.5 °F 10.4 °F 47% 29.96 in 10.0 mi NW 13.8 mph 31.1 mph N/A   Mostly Cloudy
3:35 AM 26.6 °F 15.7 °F 8.6 °F 47% 29.96 in 10.0 mi NW 12.7 mph 26.5 mph N/A   Mostly Cloudy
3:55 AM 26.6 °F 13.4 °F 6.8 °F 43% 29.96 in 10.0 mi WNW 18.4 mph 28.8 mph N/A   Scattered Clouds
4:15 AM 26.6 °F 14.3 °F 8.6 °F 47% 29.97 in 10.0 mi NW 16.1 mph 31.1 mph N/A   Scattered Clouds
4:35 AM 24.8 °F 12.9 °F 10.4 °F 54% 29.99 in 10.0 mi NNW 13.8 mph 24.2 mph N/A   Scattered Clouds
4:55 AM 24.8 °F 11.1 °F 6.8 °F 46% 30.00 in 10.0 mi NW 18.4 mph 29.9 mph N/A   Scattered Clouds
5:15 AM 24.8 °F 10.7 °F 5.0 °F 43% 30.01 in 10.0 mi WNW 19.6 mph 31.1 mph N/A   Partly Cloudy
5:35 AM 23.0 °F 8.0 °F 3.2 °F 43% 30.01 in 10.0 mi WNW 20.7 mph 33.4 mph N/A   Clear
5:55 AM 23.0 °F 9.6 °F 3.2 °F 43% 30.03 in 10.0 mi NW 16.1 mph 26.5 mph N/A   Clear
6:15 AM 23.0 °F 9.2 °F 1.4 °F 39% 30.04 in 10.0 mi WNW 17.3 mph 27.6 mph N/A   Clear
6:35 AM 21.2 °F 7.8 °F 3.2 °F 46% 30.05 in 10.0 mi NW 15.0 mph 27.6 mph N/A   Clear
6:55 AM 21.2 °F 6.8 °F 3.2 °F 46% 30.06 in 10.0 mi WNW 17.3 mph 29.9 mph N/A   Clear
7:15 AM 21.2 °F 6.0 °F 3.2 °F 46% 30.07 in 10.0 mi WNW 19.6 mph 27.6 mph N/A   Scattered Clouds
7:35 AM 21.2 °F 8.3 °F 1.4 °F 42% 30.08 in 10.0 mi WNW 13.8 mph 27.6 mph N/A   Scattered Clouds
7:55 AM 21.2 °F 8.3 °F 1.4 °F 42% 30.09 in 10.0 mi WNW 13.8 mph 25.3 mph N/A   Partly Cloudy
8:15 AM 21.2 °F 6.4 °F 1.4 °F 42% 30.10 in 10.0 mi West 18.4 mph 26.5 mph N/A   Partly Cloudy
8:35 AM 21.2 °F 7.8 °F 1.4 °F 42% 30.11 in 10.0 mi WNW 15.0 mph 23.0 mph N/A   Partly Cloudy
8:55 AM 21.2 °F 7.8 °F -0.4 °F 39% 30.12 in 10.0 mi WNW 15.0 mph 26.5 mph N/A   Partly Cloudy
9:15 AM 21.2 °F 10.1 °F 1.4 °F 42% 30.14 in 10.0 mi WNW 10.4 mph 19.6 mph N/A   Scattered Clouds
9:35 AM 21.2 °F 7.8 °F 1.4 °F 42% 30.15 in 10.0 mi West 15.0 mph 23.0 mph N/A   Mostly Cloudy
9:55 AM 21.2 °F 9.5 °F 3.2 °F 46% 30.16 in 10.0 mi West 11.5 mph 18.4 mph N/A   Overcast
10:15 AM 21.2 °F 7.3 °F 3.2 °F 46% 30.15 in 10.0 mi WNW 16.1 mph 24.2 mph N/A   Overcast
10:35 AM 21.2 °F 7.8 °F 3.2 °F 46% 30.15 in 10.0 mi WNW 15.0 mph 20.7 mph N/A   Overcast
10:55 AM 21.2 °F 6.8 °F 3.2 °F 46% 30.15 in 10.0 mi West 17.3 mph 28.8 mph N/A   Mostly Cloudy
11:15 AM 21.2 °F 6.8 °F 1.4 °F 42% 30.15 in 10.0 mi WNW 17.3 mph 24.2 mph N/A   Scattered Clouds
11:35 AM 21.2 °F 6.0 °F 1.4 °F 42% 30.14 in 10.0 mi WNW 19.6 mph 26.5 mph N/A   Mostly Cloudy
11:55 AM 21.2 °F 8.3 °F 1.4 °F 42% 30.14 in 10.0 mi WNW 13.8 mph 24.2 mph N/A   Mostly Cloudy
12:15 PM 21.2 °F 8.3 °F 1.4 °F 42% 30.13 in 10.0 mi WNW 13.8 mph 24.2 mph N/A   Mostly Cloudy
12:35 PM 21.2 °F 8.9 °F 1.4 °F 42% 30.13 in 10.0 mi WNW 12.7 mph 23.0 mph N/A   Mostly Cloudy
12:55 PM 21.2 °F 7.8 °F 3.2 °F 46% 30.12 in 10.0 mi West 15.0 mph 26.5 mph N/A   Overcast
1:15 PM 21.2 °F 8.3 °F 1.4 °F 42% 30.12 in 10.0 mi WNW 13.8 mph 25.3 mph N/A   Mostly Cloudy
1:35 PM 21.2 °F 7.3 °F 1.4 °F 42% 30.12 in 10.0 mi WNW 16.1 mph 24.2 mph N/A   Mostly Cloudy
1:55 PM 21.2 °F 6.4 °F 3.2 °F 46% 30.11 in 10.0 mi WNW 18.4 mph 25.3 mph N/A   Mostly Cloudy
2:15 PM 23.0 °F 10.6 °F 1.4 °F 39% 30.12 in 10.0 mi WNW 13.8 mph 26.5 mph N/A   Mostly Cloudy
2:35 PM 21.2 °F 8.9 °F 1.4 °F 42% 30.13 in 10.0 mi West 12.7 mph 24.2 mph N/A   Mostly Cloudy
2:55 PM 21.2 °F 7.8 °F 1.4 °F 42% 30.13 in 10.0 mi WNW 15.0 mph 20.7 mph N/A   Scattered Clouds
3:15 PM 21.2 °F 7.8 °F 1.4 °F 42% 30.13 in 10.0 mi West 15.0 mph 24.2 mph N/A   Mostly Cloudy
3:35 PM 21.2 °F 7.8 °F -0.4 °F 39% 30.14 in 10.0 mi NW 15.0 mph 23.0 mph N/A   Scattered Clouds
3:55 PM 23.0 °F 10.6 °F -0.4 °F 36% 30.14 in 10.0 mi West 13.8 mph 25.3 mph N/A   Scattered Clouds
4:15 PM 21.2 °F 6.0 °F -0.4 °F 39% 30.15 in 10.0 mi West 19.6 mph 28.8 mph N/A   Mostly Cloudy
4:35 PM 23.0 °F 10.1 °F -0.4 °F 36% 30.15 in 10.0 mi WNW 15.0 mph 21.9 mph N/A   Mostly Cloudy
4:55 PM 21.2 °F 6.4 °F -0.4 °F 39% 30.16 in 10.0 mi West 18.4 mph 27.6 mph N/A   Mostly Cloudy
5:15 PM 21.2 °F 6.8 °F -0.4 °F 39% 30.17 in 10.0 mi WNW 17.3 mph 26.5 mph N/A   Scattered Clouds
5:35 PM 21.2 °F 7.8 °F -0.4 °F 39% 30.18 in 10.0 mi WNW 15.0 mph 26.5 mph N/A   Scattered Clouds
5:55 PM 21.2 °F 6.8 °F -0.4 °F 39% 30.19 in 10.0 mi West 17.3 mph 24.2 mph N/A   Scattered Clouds
6:15 PM 21.2 °F 8.3 °F -0.4 °F 39% 30.20 in 10.0 mi WNW 13.8 mph 21.9 mph N/A   Scattered Clouds
6:35 PM 21.2 °F 7.8 °F -0.4 °F 39% 30.21 in 10.0 mi WNW 15.0 mph 27.6 mph N/A   Partly Cloudy
6:55 PM 21.2 °F 6.4 °F -2.2 °F 36% 30.21 in 10.0 mi WNW 18.4 mph 28.8 mph N/A   Clear
7:15 PM 21.2 °F 7.3 °F -0.4 °F 39% 30.22 in 10.0 mi WNW 16.1 mph 24.2 mph N/A   Clear
7:35 PM 21.2 °F 7.8 °F -0.4 °F 39% 30.22 in 10.0 mi West 15.0 mph 23.0 mph N/A   Partly Cloudy
7:55 PM 21.2 °F 8.9 °F -0.4 °F 39% 30.23 in 10.0 mi WNW 12.7 mph 21.9 mph N/A   Partly Cloudy
8:15 PM 21.2 °F 11.7 °F -0.4 °F 39% 30.24 in 10.0 mi WNW 8.1 mph 23.0 mph N/A   Clear
8:35 PM 21.2 °F 8.3 °F -0.4 °F 39% 30.24 in 10.0 mi WNW 13.8 mph 19.6 mph N/A   Clear
8:55 PM 21.2 °F 8.3 °F -2.2 °F 36% 30.24 in 10.0 mi WNW 13.8 mph 23.0 mph N/A   Clear
9:15 PM 21.2 °F 8.3 °F -0.4 °F 39% 30.25 in 10.0 mi NW 13.8 mph 20.7 mph N/A   Clear
9:35 PM 19.4 °F 5.5 °F -0.4 °F 42% 30.26 in 10.0 mi WNW 15.0 mph 20.7 mph N/A   Partly Cloudy
9:55 PM 19.4 °F 7.2 °F -0.4 °F 42% 30.27 in 10.0 mi WNW 11.5 mph 24.2 mph N/A   Partly Cloudy
10:15 PM 19.4 °F 6.6 °F -0.4 °F 42% 30.26 in 10.0 mi WNW 12.7 mph 19.6 mph N/A   Partly Cloudy
10:35 PM 19.4 °F 6.6 °F -0.4 °F 42% 30.27 in 10.0 mi NW 12.7 mph 17.3 mph N/A   Clear
10:55 PM 19.4 °F 5.5 °F -0.4 °F 42% 30.27 in 10.0 mi WNW 15.0 mph 27.6 mph N/A   Partly Cloudy
11:15 PM 19.4 °F 7.9 °F 1.4 °F 46% 30.27 in 10.0 mi NW 10.4 mph 23.0 mph N/A   Scattered Clouds
11:35 PM 17.6 °F 6.4 °F 1.4 °F 49% 30.27 in 10.0 mi NNW 9.2 mph 21.9 mph N/A   Partly Cloudy
11:55 PM 17.6 °F 5.7 °F 1.4 °F 49% 30.27 in 10.0 mi NW 10.4 mph 21.9 mph N/A   Clear